This is the latest recevied weather packets stored in our database for station/object KD7AWQ. If no packets are shown the sender has not sent any weather packets the latest 10 day(s).
| Time | Temp. | Humidity | Pressure | Rain* | Wind** | Luminosity | Snow |
|---|---|---|---|---|---|---|---|
| 1777710146 | 15.56° C | 53% | 1185.6 hPa | 0 mm | - | 0 W/m² | - |
| 1777709843 | 15.56° C | 52% | 1185.5 hPa | 0 mm | - | 0 W/m² | - |
| 1777709541 | 15.56° C | 51% | 1185.4 hPa | 0 mm | - | 0 W/m² | - |
| 1777709238 | 15.56° C | 51% | 1185.2 hPa | 0 mm | - | 0 W/m² | - |
| 1777708935 | 16.11° C | 50% | 1185 hPa | 0 mm | - | 0 W/m² | - |
| 1777708632 | 16.11° C | 49% | 1185.3 hPa | 0 mm | - | 0 W/m² | - |
| 1777708330 | 16.11° C | 48% | 1184.8 hPa | 0 mm | - | 0 W/m² | - |
| 1777708027 | 16.11° C | 47% | 1184.8 hPa | 0 mm | - | 0 W/m² | - |
| 1777707725 | 16.11° C | 46% | 1185 hPa | 0 mm | - | 0 W/m² | - |
| 1777707421 | 16.67° C | 46% | 1185 hPa | 0 mm | - | 0 W/m² | - |
| 1777707117 | 16.67° C | 45% | 1184.7 hPa | 0 mm | - | 0 W/m² | - |
| 1777706815 | 16.67° C | 44% | 1185 hPa | 0 mm | - | 0 W/m² | - |
| 1777706512 | 16.67° C | 43% | 1184.9 hPa | 0 mm | - | 0 W/m² | - |
| 1777706210 | 16.67° C | 42% | 1184.6 hPa | 0 mm | - | 0 W/m² | - |
| 1777705908 | 16.67° C | 41% | 1184.6 hPa | 0 mm | - | 0 W/m² | - |
| 1777705606 | 17.22° C | 39% | 1184.6 hPa | 0 mm | - | 0 W/m² | - |
| 1777705304 | 17.22° C | 39% | 1184.9 hPa | 0 mm | - | 0 W/m² | - |
| 1777705002 | 17.22° C | 35% | 1184.8 hPa | 0 mm | - | 0 W/m² | - |
| 1777704698 | 17.78° C | 32% | 1184.7 hPa | 0 mm | - | 0 W/m² | - |
| 1777704398 | 17.78° C | 30% | 1184.6 hPa | 0 mm | - | 0 W/m² | - |
| 1777704094 | 17.78° C | 30% | 1184.7 hPa | 0 mm | - | 0 W/m² | - |
| 1777703792 | 17.78° C | 30% | 1184.6 hPa | 0 mm | - | 0 W/m² | - |
| 1777703490 | 18.33° C | 30% | 1184.4 hPa | 0 mm | - | 0 W/m² | - |
| 1777703186 | 18.33° C | 31% | 1184.6 hPa | 0 mm | - | 0 W/m² | - |
| 1777702884 | 18.33° C | 31% | 1184.4 hPa | 0 mm | - | 0 W/m² | - |
* Rain latest hour (hover to see other rain measurements)
** Current wind speed in m/s (hover to see current wind gust speed)